x

Matinicus Rock, Me (mism1) Weather Station

4:00am - Thu 19th Jan 2017 All times are EST. -5 hours from GMT.

  • Wind
    7mph, 8mph gusts
  • 空気 Temp 36°f
  • Sea Pressure 1014.9mb
  • Matinicus Rock, Me
  • Matinicus Rock, Me

More Historic Weather Station data

Upgrade to MSW Pro to gain access to the past 30 days of data for over 8000 Wavebouys and Weather Stations around the globe.

Join Pro

Comparision Forecast

View Surf forecast
   
Thu 01/19 4:00am 7 8 mph 1014.9mb 36f
3:00am 10
mph
1015.1mb 37f
2:00am 14 15 mph 1014.8mb 37f
1:00am 13 14 mph 1015.5mb 37f
12:00am 13 15 mph 1015.7mb 37f
Wed 01/18 11:00pm 17 18 mph 1015.7mb 36f
10:00pm 16 18 mph 1016.9mb 36f
9:00pm 16 18 mph 1017.2mb 35f
8:00pm 20 23 mph 1017.6mb 35f
7:00pm 22 24 mph 1018mb 35f
6:00pm 23 25 mph 1017.7mb 35f
5:00pm 24 26 mph 1017.2mb 34f
4:00pm 26 29 mph 1017.3mb 34f
3:00pm 25 29 mph 1017.6mb 33f
2:00pm 24 28 mph 1017mb 34f
1:00pm 26 29 mph 1016.9mb 34f
12:00pm 28 31 mph 1017mb 34f
11:00am 32 34 mph 1017.4mb 34f
10:00am 33 36 mph 1018.4mb 33f
9:00am 36 38 mph 1018.2mb 33f
8:00am 33 37 mph 1018.5mb 34f
7:00am 31 33 mph 1018.4mb 33f
6:00am 33 37 mph 1018.4mb 33f
5:00am 31 33 mph 1018.3mb 35f
4:00am 29 30 mph 1019.1mb 34f
3:00am 26 31 mph 1019.7mb 35f
2:00am 28 30 mph 1020.5mb 35f
1:00am 25 28 mph 1021mb 35f
12:00am 22 24 mph 1021.5mb 35f
Tue 01/17 11:00pm 24 28 mph 1022mb 35f
10:00pm 23 24 mph 1022.7mb 35f
9:00pm 22 24 mph 1023mb 35f
8:00pm 18 21 mph 1023.3mb 35f
7:00pm 18 21 mph 1023.3mb 35f
6:00pm 15 17 mph 1023.7mb 35f
5:00pm 13 15 mph 1023.8mb 35f
4:00pm 13 15 mph 1023.5mb 35f
3:00pm 13 16 mph 1023mb 35f
2:00pm 10 11 mph 1023.1mb 36f
1:00pm 10 13 mph 1023.2mb 36f
12:00pm 13 14 mph 1023.5mb 36f
11:00am 16 18 mph 1023.4mb 36f
10:00am 21 24 mph 1023.9mb 36f
9:00am 22 24 mph 1023.7mb 37f
8:00am 15 17 mph 1023.3mb 37f
7:00am 11 13 mph 1022.1mb 37f
6:00am 10 11 mph 1021.1mb 37f
5:00am 13 14 mph 1020.6mb 37f
4:00am 15 16 mph 1020.5mb 37f
3:00am 10
mph
1020.6mb 37f
2:00am 14 15 mph 1020.1mb 38f
1:00am 15 17 mph 1019.3mb 38f
12:00am 16 18 mph 1019.4mb 39f
Mon 01/16 11:00pm 20 21 mph 1019.6mb 39f
10:00pm 23 25 mph 1019.9mb 40f
9:00pm 32 34 mph 1019.7mb 41f
8:00pm 33 37 mph 1020mb 41f
7:00pm 29 32 mph 1020.5mb 40f
6:00pm 32 36 mph 1020.6mb 39f
5:00pm 33 36 mph 1020.6mb 39f
4:00pm 32 38 mph 1021.5mb 38f
3:00pm 29 32 mph 1022.2mb 38f
2:00pm 30 32 mph 1023.1mb 37f
1:00pm 28 32 mph 1023.7mb 35f
12:00pm 24 28 mph 1025mb 34f
11:00am 24 30 mph 1026.6mb 33f
10:00am 20 23 mph 1027.5mb 33f
9:00am 16 20 mph 1028.2mb 31f
8:00am 13 15 mph 1028.9mb 28f
7:00am 6 8 mph 1028.9mb 26f
6:00am 6 7 mph 1029.4mb 24f
5:00am  -  mph 1029.9mb 23f
4:00am 5 7 mph 1029.8mb 23f
3:00am 3 5 mph 1029.9mb 23f
2:00am 5 7 mph 1030mb 22f
1:00am 15 17 mph 1029.5mb 22f
12:00am 14 17 mph 1028.9mb 22f
Sun 01/15 11:00pm 15 18 mph 1028.6mb 23f
10:00pm 18 20 mph 1028.6mb 24f
9:00pm 21 23 mph 1028.2mb 24f
8:00pm 23 25 mph 1027.9mb 26f
7:00pm 23 25 mph 1027.6mb 26f
6:00pm 20 22 mph 1026.8mb 27f
5:00pm 20 23 mph 1025.9mb 28f
4:00pm 17 18 mph 1024.8mb 29f
3:00pm 17 18 mph 1023.9mb 29f
2:00pm 17 21 mph 1023.5mb 29f
1:00pm 20 23 mph 1023.1mb 28f
12:00pm 23 26 mph 1022.8mb 29f